Regional Weather Roundup
Issued by NWS

Home | Current Version | Previous Version | Graphics & Text | Print | Product List | Glossary On
Versions: 1 2 3 4 5 6 7 8 9 10 11 12 13 14 15 16 17 18 19 20 21 22 23 24 25 26 27 28 29 30 31 32 33 34 35 36 37 38 39 40 41 42 43 44 45 46 47 48 49 50
000
ASUS43 KIND 101409
RWRIN

WEATHER ROUNDUP FOR INDIANA
NATIONAL WEATHER SERVICE INDIANAPOLIS IN
900 AM EST SAT DEC 10 2016

NOTE: "FAIR" INDICATES FEW OR NO CLOUDS BELOW 12,000 FEET WITH NO
SIGNIFICANT WEATHER AND/OR OBSTRUCTIONS TO VISIBILITY.

* - STATION DOES NOT REPORT WEATHER SUCH AS PRECIPITATION OR FOG.

+ - STATION NOT QUALITY CONTROLLED BY THE NATIONAL WEATHER SERVICE.
    USE DATA WITH CAUTION...ESPECIALLY DEWPOINT AND RELATIVE
    HUMIDITY OBSERVATIONS.

INZ001>003-010>013-019-020-101500-
NORTHWEST INDIANA

CITY           SKY/WX    TMP DP  RH WIND       PRES   REMARKS
GARY /AIRPORT/ CLOUDY    21  16  79 W12       30.53R WCI   9
KNOX *+        PTCLDY    21   3  45 W7        30.50F WCI  13
LA PORTE +     PTCLDY    19  14  79 W7        30.51R WCI  10
MICHIGAN CITY+ LGT SNOW  21  16  79 SW10      30.51R WCI  10
MONTICELLO +   CLOUDY    23  13  66 W6        30.52S WCI  15
RENSSELAER +     N/A     23  19  86 SW10      30.53R WCI  12
VALPARAISO     CLOUDY    21  14  74 W9        30.51S WCI  11

$$

LMZ046-743>745-101500-
SOUTHERN LAKE MICHIGAN

STATION/POSITION TIME  TEMP    WIND        PRES    WAVE
                       AIR SEA DIR/SP/G            HT
                 (UTC) (F)     (DEG/KT/KT) (MB)    (FT)

$$

INZ004-005-014>016-021>024-101500-
NORTH CENTRAL INDIANA

CITY           SKY/WX    TMP DP  RH WIND       PRES   REMARKS
ELKHART        LGT SNOW  21  14  73 W9        30.48S WCI  11
GOSHEN         PTCLDY    20  12  71 SW10      30.48F WCI   9
LOGANSPORT +   CLOUDY    23  18  80 W7        30.53S WCI  15
PERU/GRISSOM   CLOUDY    23  17  77 W10       30.50R WCI  12
ROCHESTER +    PTCLDY    25  19  80 W3        30.51S
SOUTH BEND     FLURRIES  19  14  81 SW13      30.49S WCI   6
WARSAW +       PTCLDY    19  12  73 W6        30.49F WCI  11

$$

INZ006>009-017-018-025>027-101500-
NORTHEAST INDIANA

CITY           SKY/WX    TMP DP  RH WIND       PRES   REMARKS
ANGOLA *+      CLOUDY    19  14  79 W7        30.45S WCI  10
AUBURN +       CLOUDY    23  14  68 SW7       30.49F WCI  15
FORT WAYNE     CLOUDY    22  14  71 W8        30.51S WCI  12
HUNTINGTON +   CLOUDY    21  14  74 W3        30.51S
KENDALLVILLE + PTCLDY    20  13  74 W13       30.47S WCI   7

$$

INZ028-029-035-036-043>045-051>053-101500-
WEST CENTRAL INDIANA

CITY           SKY/WX    TMP DP  RH WIND       PRES   REMARKS
CRAWFORDSVL +  CLOUDY    20  17  86 SW7       30.54S WCI  11
GREENCASTLE +  CLOUDY    23  19  86 CALM      30.55S
LAFAYETTE      CLOUDY    22  17  81 W6        30.54S WCI  14
TERRE HAUTE    MOCLDY    24  16  71 S3        30.57S

$$

INZ030>032-037>040-046>048-054>057-064-065-101500-
CENTRAL INDIANA

CITY           SKY/WX    TMP DP  RH WIND       PRES   REMARKS
ANDERSON       MOCLDY    21  18  86 SW8       30.53  WCI  12
CP ATTERBURY + CLOUDY    25  19  80 CALM      30.56F
COLUMBUS       CLOUDY    23  21  93 SW5       30.57S WCI  17
FRANKFORT +    CLOUDY    25  19  79 W9        30.53S WCI  15
GREENWOOD *+   CLOUDY    23  16  75 W6        30.55F WCI  16
INDIANAPOLIS   CLOUDY    22  15  75 W8        30.54S WCI  12
-EAGLE CREEK   CLOUDY    22  15  75 SW6       30.54S WCI  14
KOKOMO +       CLOUDY    23  17  78 SW12      30.52S WCI  12
MARION +       CLOUDY    23  17  77 W12       30.52R HAZE    WCI  11
MT COMFORT *+  CLOUDY    21  14  73 W7        30.53F WCI  13
SHELBYVILLE    CLOUDY    24  16  71 W8        30.54S WCI  15
ZIONSVILLE +   CLOUDY    21  16  82 W9        30.53S WCI  11

$$

INZ033-034-041-042-049-050-058-059-101500-
EAST CENTRAL INDIANA

CITY           SKY/WX    TMP DP  RH WIND       PRES   REMARKS
MUNCIE         CLOUDY    24  17  74 W7        30.51S WCI  16

$$

INZ060-061-067>069-081>083-085>088-101500-
SOUTHWEST INDIANA

CITY           SKY/WX    TMP DP  RH WIND       PRES   REMARKS
EVANSVILLE     CLOUDY    25  19  78 CALM      30.61S
HUNTINGBURG *+ CLOUDY    21  19  93 CALM      30.60S
WASHINGTON +   CLOUDY    24  20  83 W3        30.59R

$$

INZ062-063-066-070>080-084-089>092-101500-
SOUTH CENTRAL AND SOUTHEAST INDIANA

CITY           SKY/WX    TMP DP  RH WIND       PRES   REMARKS
BLOOMINGTON    PTCLDY    22  17  81 SW3       30.55F
MADISON *+     CLOUDY    23  18  80 SW5       30.59S WCI  17
NORTH VERNON + CLOUDY    23  23 100 SW6       30.58R WCI  16
SEYMOUR +      SUNNY     25  19  80 CALM      30.58S

$$





USA.gov is the U.S. government's official web portal to all federal, state and local government web resources and services.